Regional Weather Roundup
Issued by NWS

Home | Current Version | Previous Version | Text Only | Print | Product List | Glossary Off
Versions: 1 2 3 4 5 6 7 8 9 10 11 12 13 14 15 16 17 18 19 20 21 22 23 24 25 26 27 28 29 30 31 32 33 34 35 36 37 38 39 40 41 42 43 44 45 46 47 48 49 50

000
ASUS45 KABQ 172001
RWRNM
WEATHER ROUNDUP FOR NEW MEXICO
NATIONAL WEATHER SERVICE ALBUQUERQUE NM
100 PM MST WED DEC 17 2014

NOTE: "FAIR" MEANS FEW OR NO CLOUDS BELOW 12,000 FEET AGL WITH NO
       SIGNIFICANT WEATHER OR OBSTRUCTIONS TO VISION.

      THIS PRODUCT IS RELEASED AS TWO VERSIONS.  ONE VERSION NEAR
      THE TOP OF THE HOUR CONTAINING PRELIMINARY DATA FROM ALBUQUERQUE
      AND OTHER STATIONS.  A FINAL VERSION WITH ADDITIONAL DATA IS
      ISSUED ABOUT 10 MINUTES AFTER THE HOUR.

NMZ501-503-504-510>518-172100-
NORTHWEST PLATEAU/NORTHCENTRAL MOUNTAINS

CITY           SKY/WX    TMP DP  RH WIND       PRES   REMARKS
FARMINGTON     CLOUDY    42  26  53 W6        29.95F
SANTA FE       LGT SNOW  33  31  92 W3        29.96F FOG
TAOS           CLOUDY    30  27  86 N6        29.96F WCI  24

$$
NMZ402-403-502-505>509-172100-
WESTCENTRAL MOUNTAINS/SOUTHWEST MOUNTAINS

CITY           SKY/WX    TMP DP  RH WIND       PRES   REMARKS
GALLUP         LGT SNOW  34  31  88 SW13      29.99S FOG     WCI  25
GRANTS         PTSUNNY   38  34  83 CALM      29.98F
SILVER CITY    CLOUDY    46  32  57 W15G26    30.07F

$$
NMZ407-409-411-412-172100-
SOUTHERN DESERTS

CITY           SKY/WX    TMP DP  RH WIND       PRES   REMARKS
DEMING         RAIN      49  39  68 W23G32    30.05F
HOLLOMAN AFB   MOSUNNY   58  31  35 SW12      30.00F
ALAMOGORDO     CLOUDY    54  28  37 S10G17    30.02F
T OR C         CLOUDY    53  33  46 S20G29    29.97F

$$
NMZ519>523-172100-
CENTRAL VALLEYS/CENTRAL HIGHLANDS

CITY           SKY/WX    TMP DP  RH WIND       PRES   REMARKS
ALBUQUERQUE    PTSUNNY   42  36  79 CALM      29.98F
DOUBLE EAGLE   CLOUDY    39  34  81 S10       29.99F WCI  32
CLINES CORNERS CLOUDY    36  34  92 W16       29.93F WCI  26
BELEN          FAIR      44  33  64 SE5       29.98F
SOCORRO        NOT AVBL

$$
NMZ524>526-539-540-172100-
SOUTHCENTRAL MOUNTAINS

CITY           SKY/WX    TMP DP  RH WIND       PRES   REMARKS
RUIDOSO        MOSUNNY   45  27  49 SW18G31   29.98F

$$
NMZ527>531-172100-
NORTHEAST HIGHLANDS/NORTHEAST PLAINS

CITY           SKY/WX    TMP DP  RH WIND       PRES   REMARKS
LAS VEGAS      CLOUDY    44  26  49 SW22G30   29.90F
RATON          CLOUDY    37  22  54 S8        29.89F WCI  31
CLAYTON        LGT RAIN  39  31  72 SW10      29.89F WCI  32

$$
NMZ532>537-172100-
EASTCENTRAL PLAINS

CITY           SKY/WX    TMP DP  RH WIND       PRES   REMARKS
TUCUMCARI      PTSUNNY   54  30  40 SW9       29.90F
CANNON AFB     MOSUNNY   52  34  49 SW9       29.93F
CLOVIS AIRPORT PTSUNNY   52  34  50 S15G21    29.94F

$$
NMZ028-029-538-172100-
SOUTHEAST PLAINS

CITY           SKY/WX    TMP DP  RH WIND       PRES   REMARKS
ROSWELL        MOSUNNY   55  32  41 CALM      29.95F
ARTESIA        SUNNY     63  32  31 SW25G36   29.94F
CARLSBAD       SUNNY     65  31  28 W22G30    29.94F
HOBBS          SUNNY     59  36  41 SW16      29.96F


$$



USA.gov is the U.S. government's official web portal to all federal, state and local government web resources and services.